星链-5022 (STARLINK-5022 )

导读

STARLINK-5022是美国SpaceX星链互联网卫星星座的一员,于2022年9月24日发射入轨,归属美国航天发射项目。该卫星旨在为全球范围内用户提供低延迟、高速率的卫星互联网接入服务,填补地面网络覆盖盲区,依托星链星座大规模组网架构,服务全球通信与互联网连接需求,是星链组网扩容的重要组成卫星。

Basic Information
目录编号:
53903
目录名称:
STARLINK-5022
国际标识:
2022-119T
轨道中心:
EARTH
卫星名称:
星链-5022
卫星全名:
星链-5022 (STARLINK-5022 )
卫星状态:
在轨 (已飞行1449 天)
发射日期:
2022-09-24 UTC
国别 :
美国 (US)
星等 :
--
This satellite is enrolled in the Space Conjunction Data Service (SCDS) and the current flight risk assessment level is: No High Risk
Orbit Information
数据来源 国际轨道数据 AOE轨道数据
星历时间 2026-09-12T11:19:59+0800
8小时前
查看轨道信息
2026-09-06T23:00:00+0800
5天前
查看轨道信息
半长轴 6848.885km 6848.845km
偏心率 0.000111 0.0001195
轨道倾角 53.160° 53.159°
近地点辐角 85.937° 90.667°
升交点赤经 198.687° 224.358°
平近点角 274.176° 88.304°
近地点 469.987km 469.889km
远地点 471.509km 471.527km
周期 94.013分钟 94.013分钟
每日圈数 15.316975 15.317109
Detailed Information
固有亮度:
5
最大亮度:
2.5
卫星平台:
Starlink v1.5
覆盖范围:
全球
运营商:
太空探索技术公司
运营商所在国:
美国
制造商(研发单位):
太空探索技术公司
制造商所在国:
美国
使用方式:
暂无
Satellite Introduction
星链(Starlink)计划是由太空探索技术公司(SpaceX)提出的一个巨型低轨卫星互联网星座项目,计划在2019年至2024年间在太空搭建由约1.2万颗卫星组成的“星链”网络,其中1584颗将部署在地球上空550千米处的近地轨道,并从2020年开始工作。该卫星仍在工作。
2D Orbit Map
3D Orbit Map
Orbit Altitude Analysis Chart
Orbit Inclination Analysis Chart
Orbit Comprehensive Analysis Chart
View Comprehensive Chart
Conjunction Data List
Event ID Objects TCA Miss Dist (km) Collision Risk Probability Collision Risk Index (CRI) Action
CDM_260913-044305-305405-390321
2026-09-13T
04:43:03+0000
2.601 km
极远距离
1.53303E-6 低风险 0.39
CDM_260912-161805-390306-756821
2026-09-12T
16:18:10+0000
2.650 km
极远距离
1.475509E-6 低风险 0.38
CDM_260914-110705-390306-116321
2026-09-14T
11:07:32+0000
2.259 km
极远距离
1.240313E-6 低风险 0.37
Miss Distance Evolution Trend with All Objects
Collision Probability Evolution Trend with All Objects